Date_and_time,latitude,longitude,wind_speed,RelWindDirFrom,WindDirFrom,air_pressure,air_temperature,relative_humidity,Temp,platform_speed_wrt_ground,air_pressure_at_mean_sea_level,platform_orientation
2019-01-31 00:00,50.630455,-96.9807633333333,2.1,2.7,198,997.54,-31.3,59,0.37,0.0,1029.18,327.5
2019-01-31 00:10,50.6304666666667,-96.9807883333333,3.0,4.0,201,997.46,-31.5,59,0.38,0.0,1029.12,327.5
2019-01-31 00:20,50.6304516666667,-96.9807566666667,3.4,4.2,201,997.25,-31.7,60,0.38,0.0,1028.90,327.5
2019-01-31 00:30,50.6304533333333,-96.980755,3.8,4.9,196,997.16,-31.8,60,0.38,0.0,1028.79,327.5
2019-01-31 00:40,50.630455,-96.9807566666667,3.4,4.0,192,997.13,-31.8,60,0.38,0.0,1028.80,327.5
2019-01-31 00:50,50.630455,-96.9807583333333,3.5,4.0,174,996.99,-31.9,60,0.38,0.0,1028.69,327.5
2019-01-31 01:00,50.630455,-96.9807583333333,2.9,3.5,173,996.95,-32.1,61,0.38,0.0,1028.70,90.0
2019-01-31 01:10,50.630455,-96.9807583333333,2.5,2.9,182,996.99,-32.3,61,0.39,0.0,1028.81,90.0
2019-01-31 01:20,50.630455,-96.9807583333333,3.3,3.6,182,996.95,-32.3,62,0.39,0.0,1028.80,90.0
2019-01-31 01:30,50.6304683333333,-96.9807583333333,3.3,3.7,174,996.84,-32.2,62,0.40,0.0,1028.70,90.0
2019-01-31 01:40,50.6304466666667,-96.9807566666667,4.0,4.5,169,996.80,-32.4,62,0.40,0.0,1028.68,90.0
2019-01-31 01:50,50.6304466666667,-96.9807633333333,4.0,4.5,179,996.78,-32.6,63,0.40,0.0,1028.67,90.0
2019-01-31 02:00,50.6304483333333,-96.9807633333333,4.1,4.6,169,996.73,-32.7,63,0.40,0.0,1028.65,131.7
2019-01-31 02:10,50.6304483333333,-96.9807633333333,4.2,5.0,177,996.78,-33.0,63,0.41,0.0,1028.73,131.7
2019-01-31 02:20,50.6304483333333,-96.9807633333333,3.7,4.5,188,996.87,-33.2,64,0.41,0.0,1028.84,131.7
2019-01-31 02:30,50.63045,-96.9807666666667,2.7,3.3,200,996.88,-33.3,64,0.41,0.0,1028.85,131.7
2019-01-31 02:40,50.6304516666667,-96.9807683333333,2.3,2.9,202,996.86,-33.4,64,0.41,0.0,1028.85,131.7
2019-01-31 02:50,50.6304533333333,-96.9807683333333,1.7,2.1,199,996.80,-33.6,64,0.41,0.0,1028.82,131.7
2019-01-31 03:00,50.6304533333333,-96.9807683333333,1.7,2.3,205,996.77,-33.6,64,0.41,0.0,1028.81,0.0
2019-01-31 03:10,50.6304533333333,-96.9807666666667,2.7,3.5,222,996.84,-33.8,64,0.41,0.0,1028.88,0.0
2019-01-31 03:20,50.630455,-96.9807666666667,3.4,4.2,226,996.89,-34.0,64,0.40,0.0,1028.95,0.0
2019-01-31 03:30,50.630455,-96.9807666666667,3.3,3.9,225,996.90,-34.1,64,0.40,0.0,1028.98,0.0
2019-01-31 03:40,50.6304583333333,-96.980765,2.7,3.6,221,996.88,-34.3,64,0.40,0.0,1028.98,0.0
2019-01-31 03:50,50.630465,-96.98078,2.6,3.0,220,996.82,-34.3,64,0.40,0.0,1028.93,0.0
2019-01-31 04:00,50.63046,-96.9807616666667,3.0,3.6,223,996.86,-34.3,64,0.40,0.0,1028.98,360.0
2019-01-31 04:10,50.6304466666667,-96.9807583333333,3.3,3.8,230,996.68,-34.1,65,0.40,0.0,1028.80,360.0
2019-01-31 04:20,50.6304466666667,-96.9807583333333,4.4,5.3,243,996.68,-33.5,65,0.40,0.0,1028.77,360.0
2019-01-31 04:30,50.6304483333333,-96.98076,4.6,5.2,224,996.67,-33.7,65,0.39,0.0,1028.78,360.0
2019-01-31 04:40,50.6304483333333,-96.98076,3.7,5.0,217,996.53,-34.2,64,0.38,0.0,1028.68,360.0
2019-01-31 04:50,50.63045,-96.98076,3.0,3.5,212,996.46,-34.3,65,0.38,0.0,1028.61,360.0
2019-01-31 05:00,50.63045,-96.9807616666667,4.2,4.9,206,996.47,-34.4,65,0.39,0.0,1028.65,12.6
2019-01-31 05:10,50.63045,-96.9807616666667,3.9,5.1,215,996.50,-34.5,65,0.39,0.0,1028.70,12.6
2019-01-31 05:20,50.63046,-96.9807866666667,3.4,4.3,213,996.48,-34.5,65,0.39,0.0,1028.69,12.6
2019-01-31 05:30,50.630445,-96.9807916666667,3.4,4.0,212,996.40,-34.5,65,0.39,0.0,1028.62,12.6
2019-01-31 05:40,50.6304616666667,-96.9807616666667,3.6,4.2,210,996.31,-34.6,64,0.39,0.0,1028.52,12.6
2019-01-31 05:50,50.6304566666667,-96.98076,3.8,4.5,219,996.39,-34.7,64,0.39,0.0,1028.62,12.6
2019-01-31 06:00,50.6304566666667,-96.9807583333333,3.6,4.5,219,996.37,-34.8,64,0.40,0.0,1028.59,90.0
2019-01-31 06:10,50.630455,-96.9807583333333,4.4,5.3,234,996.53,-34.7,65,0.40,0.0,1028.71,90.0
2019-01-31 06:20,50.6304466666667,-96.980765,4.1,5.0,236,996.50,-34.8,65,0.40,0.0,1028.69,90.0
2019-01-31 06:30,50.6304766666667,-96.9807783333333,3.4,4.3,236,996.45,-34.9,65,0.40,0.0,1028.69,90.0
2019-01-31 06:40,50.6304633333333,-96.9807683333333,2.6,3.4,229,996.46,-35.0,64,0.40,0.0,1028.71,90.0
2019-01-31 06:50,50.6304566666667,-96.9807733333333,2.5,3.4,210,996.52,-35.4,64,0.39,0.0,1028.81,90.0
2019-01-31 07:00,50.6304766666667,-96.9807916666667,1.7,3.1,199,996.39,-35.6,64,0.39,0.0,1028.69,316.2
2019-01-31 07:10,50.6304616666667,-96.9807716666667,1.0,1.9,203,996.35,-35.5,64,0.39,0.0,1028.65,316.2
2019-01-31 07:20,50.6304566666667,-96.980765,1.1,1.8,149,996.28,-35.5,64,0.39,0.0,1028.58,316.2
2019-01-31 07:30,50.6304533333333,-96.9807683333333,2.1,2.9,140,996.21,-35.6,64,0.39,0.0,1028.52,316.2
2019-01-31 07:40,50.63045,-96.98077,1.4,2.6,162,996.29,-35.7,63,0.38,0.0,1028.61,316.2
2019-01-31 07:50,50.6304533333333,-96.9807733333333,1.6,2.1,156,996.21,-36.0,63,0.37,0.0,1028.55,316.2
2019-01-31 08:00,50.6304566666667,-96.9807733333333,2.3,3.0,170,996.15,-36.0,63,0.37,0.0,1028.49,270.0
2019-01-31 08:10,50.63047,-96.9807683333333,2.8,3.7,162,995.92,-36.1,63,0.37,0.0,1028.26,270.0
2019-01-31 08:20,50.6304483333333,-96.9807416666667,3.3,3.9,151,995.71,-35.7,64,0.38,0.0,1028.02,270.0
2019-01-31 08:30,50.6304583333333,-96.98076,2.4,3.3,155,995.63,-35.4,64,0.38,0.0,1027.93,270.0
2019-01-31 08:40,50.6304583333333,-96.98076,2.9,3.6,163,995.67,-35.5,63,0.38,0.0,1028.01,270.0
2019-01-31 08:50,50.6304583333333,-96.9807633333333,3.5,4.0,158,995.57,-35.3,64,0.38,0.0,1027.89,270.0
2019-01-31 09:00,50.6304566666667,-96.9807633333333,3.3,4.0,147,995.30,-34.9,64,0.38,0.0,1027.59,270.0
2019-01-31 09:10,50.6304533333333,-96.98076,3.4,4.8,139,995.19,-34.4,64,0.38,0.0,1027.45,270.0
2019-01-31 09:20,50.6304616666667,-96.980765,4.4,5.7,143,995.14,-34.1,64,0.38,0.0,1027.37,270.0
2019-01-31 09:30,50.6304583333333,-96.980755,5.7,6.7,144,994.98,-34.0,64,0.37,0.0,1027.21,270.0
2019-01-31 09:40,50.6304516666667,-96.980745,5.7,6.7,149,995.00,-33.9,64,0.37,0.0,1027.24,270.0
2019-01-31 09:50,50.6304483333333,-96.980755,5.6,6.6,157,995.10,-33.8,64,0.37,0.0,1027.35,270.0
2019-01-31 10:00,50.6304466666667,-96.980755,4.5,5.8,168,995.17,-33.8,64,0.37,0.0,1027.42,149.2
2019-01-31 10:10,50.6304466666667,-96.9807566666667,4.2,5.3,182,995.32,-34.0,64,0.37,0.0,1027.56,149.2
2019-01-31 10:20,50.63045,-96.9807616666667,3.5,4.6,184,995.32,-34.1,64,0.37,0.0,1027.54,149.2
2019-01-31 10:30,50.6304533333333,-96.9807633333333,3.1,3.8,184,995.20,-34.3,64,0.38,0.0,1027.44,149.2
2019-01-31 10:40,50.6304983333333,-96.9808083333333,2.8,3.6,181,995.02,-34.4,64,0.38,0.0,1027.24,149.2
2019-01-31 10:50,50.6304683333333,-96.980775,2.4,3.0,182,995.01,-34.3,64,0.38,0.0,1027.21,149.2
2019-01-31 11:00,50.630465,-96.9807716666667,2.8,3.9,184,995.04,-34.1,64,0.36,0.0,1027.19,360.0
2019-01-31 11:10,50.630455,-96.98077,3.1,3.8,190,995.16,-34.0,65,0.34,0.0,1027.29,360.0
2019-01-31 11:20,50.6304516666667,-96.9807683333333,2.9,4.1,189,995.16,-33.9,65,0.34,0.0,1027.26,360.0
2019-01-31 11:30,50.630455,-96.980765,3.3,4.4,183,995.09,-33.8,65,0.36,0.0,1027.18,360.0
2019-01-31 11:40,50.630455,-96.980765,3.7,5.1,168,994.93,-33.6,65,0.36,0.0,1027.00,360.0
2019-01-31 11:50,50.630455,-96.980765,6.0,7.2,156,994.81,-33.1,65,0.37,0.0,1026.84,360.0
2019-01-31 12:00,50.6304583333333,-96.98075,7.1,8.3,162,994.72,-32.8,66,0.37,0.0,1026.74,54.7
2019-01-31 12:10,50.6304533333333,-96.98076,6.5,7.6,164,994.64,-32.6,66,0.36,0.0,1026.65,54.7
2019-01-31 12:20,50.6304566666667,-96.980755,6.5,8.0,153,994.41,-32.5,66,0.36,0.0,1026.42,54.7
2019-01-31 12:30,50.6304533333333,-96.980755,7.6,8.8,147,994.28,-32.4,66,0.36,0.0,1026.29,54.7
2019-01-31 12:40,50.6304533333333,-96.9807616666667,7.3,8.7,151,994.32,-32.4,66,0.36,0.0,1026.32,54.7
2019-01-31 12:50,50.630455,-96.9807633333333,7.7,9.1,150,994.33,-32.3,66,0.36,0.0,1026.32,54.7
2019-01-31 13:00,50.6304566666667,-96.9807633333333,8.0,9.3,146,994.22,-32.3,66,0.36,0.0,1026.19,311.7
2019-01-31 13:10,50.6304566666667,-96.980765,7.6,9.2,150,994.21,-32.1,66,0.36,0.0,1026.16,311.7
2019-01-31 13:20,50.630455,-96.980765,7.7,9.3,151,994.24,-31.9,66,0.36,0.0,1026.17,311.7
2019-01-31 13:30,50.63044,-96.980765,8.1,9.7,150,994.30,-31.8,66,0.37,0.0,1026.22,311.7
2019-01-31 13:40,50.63045,-96.9807683333333,8.4,10.0,146,994.34,-31.8,66,0.37,0.0,1026.22,311.7
2019-01-31 13:50,50.6304533333333,-96.98077,7.9,9.6,150,994.44,-31.8,66,0.37,0.0,1026.30,311.7
2019-01-31 14:00,50.6304516666667,-96.9807683333333,7.1,8.4,139,994.49,-31.7,66,0.37,0.0,1026.34,156.5
2019-01-31 14:10,50.6304466666667,-96.9807716666667,8.0,9.5,139,994.50,-31.8,66,0.37,0.0,1026.35,156.5
2019-01-31 14:20,50.6304566666667,-96.9807733333333,8.2,9.8,138,994.35,-31.8,66,0.37,0.0,1026.19,156.5
2019-01-31 14:30,50.63046,-96.9807716666667,7.6,9.4,136,994.29,-31.7,66,0.36,0.0,1026.12,156.5
2019-01-31 14:40,50.6304566666667,-96.98077,8.3,9.9,139,994.19,-31.7,66,0.36,0.0,1026.01,156.5
2019-01-31 14:50,50.63046,-96.98077,8.5,10.7,135,993.87,-31.6,65,0.37,0.0,1025.67,156.5
2019-01-31 15:00,50.63046,-96.98077,9.0,10.8,140,993.75,-31.8,65,0.37,0.0,1025.55,270.0
2019-01-31 15:10,50.6304616666667,-96.9807683333333,9.6,11.4,144,993.86,-31.8,65,0.36,0.0,1025.65,270.0
2019-01-31 15:20,50.6304583333333,-96.9807533333333,9.8,11.5,147,993.86,-31.7,65,0.35,0.0,1025.64,270.0
2019-01-31 15:30,50.6304583333333,-96.98076,10.1,11.4,146,993.84,-31.7,65,0.36,0.0,1025.61,270.0
2019-01-31 15:40,50.63046,-96.98076,9.8,12.0,153,993.71,-31.5,65,0.36,0.0,1025.46,270.0
2019-01-31 15:50,50.6304416666667,-96.9807566666667,10.4,12.4,156,993.80,-31.2,66,0.36,0.0,1025.53,270.0
2019-01-31 16:00,50.63045,-96.9807583333333,11.2,13.0,159,993.91,-30.8,66,0.36,0.0,1025.63,90.0
2019-01-31 16:10,50.6304266666667,-96.98078,11.5,13.0,157,993.89,-30.4,65,0.36,0.0,1025.58,90.0
2019-01-31 16:20,50.6304516666667,-96.98077,11.4,12.9,154,993.88,-30.2,65,0.36,0.0,1025.54,90.0
2019-01-31 16:30,50.6304583333333,-96.980765,11.4,12.9,153,993.78,-29.9,65,0.35,0.0,1025.43,90.0
2019-01-31 16:40,50.6304566666667,-96.9807616666667,10.2,12.3,150,993.86,-29.5,65,0.36,0.0,1025.47,90.0
2019-01-31 16:50,50.630455,-96.98076,10.1,11.5,152,993.99,-29.3,64,0.35,0.0,1025.61,90.0
2019-01-31 17:00,50.630455,-96.9807616666667,10.1,12.0,150,994.10,-29.2,64,0.36,0.0,1025.71,90.0
2019-01-31 17:10,50.630455,-96.9807633333333,10.4,12.3,149,993.98,-28.7,64,0.36,0.0,1025.56,90.0
2019-01-31 17:20,50.630455,-96.980765,11.1,12.5,149,993.81,-28.5,64,0.36,0.0,1025.36,90.0
2019-01-31 17:30,50.630455,-96.980765,11.3,12.9,148,993.66,-28.1,64,0.36,0.0,1025.17,90.0
2019-01-31 17:40,50.6304533333333,-96.980765,11.1,12.8,144,993.60,-28.0,63,0.36,0.0,1025.09,90.0
2019-01-31 17:50,50.6304533333333,-96.980765,11.9,13.6,143,993.30,-27.9,64,0.36,0.0,1024.75,90.0
2019-01-31 18:00,50.6304533333333,-96.980765,11.9,13.8,144,993.37,-27.6,65,0.36,0.0,1024.77,360.0
2019-01-31 18:10,50.630455,-96.980765,12.2,14.0,142,993.37,-27.4,65,0.36,0.0,1024.73,360.0
2019-01-31 18:20,50.6304533333333,-96.9807666666667,11.3,13.8,148,993.49,-27.1,64,0.36,0.0,1024.82,360.0
2019-01-31 18:30,50.6304533333333,-96.9807666666667,11.1,13.9,150,993.53,-26.7,65,0.36,0.0,1024.81,360.0
2019-01-31 18:40,50.6304533333333,-96.9807666666667,12.4,14.5,154,993.56,-26.4,64,0.36,0.0,1024.81,360.0
2019-01-31 18:50,50.6304533333333,-96.9807666666667,13.8,16.5,156,993.38,-26.2,63,0.37,0.0,1024.60,360.0
2019-01-31 19:00,50.6304533333333,-96.9807666666667,13.7,16.1,154,993.36,-26.0,62,0.37,0.0,1024.54,270.0
2019-01-31 19:10,50.6304533333333,-96.9807666666667,11.8,14.2,154,993.43,-25.7,62,0.37,0.0,1024.58,270.0
2019-01-31 19:20,50.6304533333333,-96.9807666666667,12.9,14.7,145,993.20,-25.5,61,0.36,0.0,1024.30,270.0
2019-01-31 19:30,50.6304533333333,-96.9807683333333,13.5,15.7,143,992.80,-24.9,60,0.36,0.0,1023.85,270.0
2019-01-31 19:40,50.6304533333333,-96.9807683333333,12.9,15.7,148,992.82,-24.6,59,0.36,0.0,1023.84,270.0
2019-01-31 19:50,50.6304533333333,-96.9807683333333,13.3,15.7,146,992.86,-24.7,59,0.36,0.0,1023.87,270.0
2019-01-31 20:00,50.6304533333333,-96.9807683333333,13.7,16.8,148,992.78,-24.6,59,0.35,0.0,1023.77,270.0
2019-01-31 20:10,50.6304616666667,-96.980775,13.4,16.2,150,992.67,-24.4,58,0.35,0.0,1023.62,270.0
2019-01-31 20:20,50.6304566666667,-96.9807716666667,14.5,17.2,145,992.33,-24.4,58,0.35,0.0,1023.25,270.0
2019-01-31 20:30,50.630455,-96.9807633333333,14.4,18.1,147,992.09,-24.4,58,0.35,0.0,1022.97,270.0
2019-01-31 20:40,50.6304583333333,-96.9807683333333,15.8,18.6,152,991.85,-24.2,58,0.36,0.0,1022.71,270.0
2019-01-31 20:50,50.6304083333333,-96.9807366666667,16.0,18.1,155,991.74,-24.1,57,0.37,0.0,1022.58,270.0
2019-01-31 21:00,50.630445,-96.9807566666667,15.8,19.2,154,991.82,-23.9,57,0.37,0.0,1022.63,165.5
2019-01-31 21:10,50.63045,-96.9807616666667,16.2,19.9,157,991.68,-23.7,57,0.37,0.0,1022.46,165.5
2019-01-31 21:20,50.6304716666667,-96.9807583333333,16.7,20.3,155,991.58,-23.6,57,0.38,0.0,1022.32,165.5
2019-01-31 21:30,50.6304583333333,-96.9807616666667,16.3,19.5,159,991.76,-23.4,57,0.37,0.0,1022.46,165.5
2019-01-31 21:40,50.630455,-96.980765,16.1,19.7,160,991.79,-23.2,56,0.37,0.0,1022.49,165.5
2019-01-31 21:50,50.6304533333333,-96.9807683333333,15.3,18.9,164,991.87,-23.0,54,0.36,0.0,1022.55,165.5
2019-01-31 22:00,50.630455,-96.98077,14.7,17.6,161,991.67,-22.9,55,0.36,0.0,1022.33,0.0
2019-01-31 22:10,50.6304516666667,-96.9807583333333,15.2,18.0,161,991.49,-22.8,55,0.37,0.0,1022.14,0.0
2019-01-31 22:20,50.630455,-96.9807683333333,15.0,18.2,160,991.51,-22.7,55,0.37,0.0,1022.15,0.0
2019-01-31 22:30,50.6304566666667,-96.98077,12.9,15.7,160,991.76,-22.6,55,0.37,0.0,1022.39,0.0
2019-01-31 22:40,50.6304566666667,-96.9807683333333,13.7,16.2,155,991.86,-22.5,56,0.37,0.0,1022.48,0.0
2019-01-31 22:50,50.630455,-96.98077,14.4,17.3,161,991.61,-22.3,56,0.37,0.0,1022.20,0.0
2019-01-31 23:00,50.630435,-96.9807666666667,15.4,19.5,166,991.38,-22.3,54,0.37,0.0,1021.95,161.1
2019-01-31 23:10,50.6304466666667,-96.980775,14.0,16.8,165,991.08,-22.2,55,0.37,0.0,1021.63,161.1
2019-01-31 23:20,50.6304466666667,-96.9807716666667,14.4,18.0,164,991.02,-22.2,55,0.38,0.0,1021.55,161.1
2019-01-31 23:30,50.6304483333333,-96.98076,15.0,19.0,162,990.91,-22.0,57,0.38,0.0,1021.42,161.1
